Location: Kershaw
(34.5481°N, 80.5823°W)
Time: 09:21:43
(UTC+00:00)

Altair - Pass Details

Date: 03 October 2022
Orbit: 1501 x 1682 km, 47.2° (Epoch: 30 November)

Event Time Altitude Azimuth Distance (km) Brightness Sun altitude
Rises 18:46:36 0° 294° (WNW) 4,935 10.3 45.2°
Reaches altitude 10° 18:50:42 10° 281° (W) 3,944 10.0 44.8°
Maximum altitude 18:57:50 22° 235° (SW) 3,063 10.5 43.9°
Drops below altitude 10° 19:04:54 10° 190° (S) 3,886 10.5 42.9°
Sets 19:08:58 0° 175° (S) 4,844 10.6 42.4°
